{"data":{"norad_id":61186,"intl_designator":"2024-168B","name":"BEIDOU-3 M25 (C47)","alt_names":[],"object_type":"PAYLOAD","status":"ACTIVE","operator":null,"country":"PRC","launch_date":"2024-09-19","launch_site_code":"XICLF","launch_vehicle":null,"mission":null,"orbit_class":"UNKNOWN","rcs_meters":null,"size_class":null,"mass_kg":null,"dimensions":null,"purposes":["nav"],"wikipedia_slug":null,"has_3d_model":false,"image_url":null,"decayed_at":null,"tle_current":{"epoch":"2026-05-23T18:15:03.115008Z","epoch_age_seconds":172400,"freshness":"FRESH","line1":"1 61186U 24168B   26143.76045272 -.00000078  00000+0  00000+0 0  9996","line2":"2 61186  54.4958 303.0900 0002982 311.8334  49.3076  1.86230046 11335","mean_motion":1.86230046,"eccentricity":0.0002982,"inclination_deg":54.4958,"raan_deg":303.09,"arg_perigee_deg":311.8334,"mean_anomaly_deg":49.3076,"bstar":0,"rev_number":1133,"period_min":773.23720362503,"perigee_km":21519.825213243,"apogee_km":21536.468520942,"semimajor_km":27906.283867093,"source":"CELESTRAK","updated_at":"2026-05-25T13:38:24.224943Z"}}}